[[{"header":{"parameterUnit":"m.s-1","parameterCategory":1,"la1":30.2991,"la2":30.254,"lo1":-89.0895,"lo2":-89.0444,"dy":0.0017,"dx":0.0017,"nx":28,"ny":28,"refTime":"2024-07-01T21:00:00:Z","depth":0,"parameterNumber":2,"parameterNumberName":"U-component_of_WINDS"},"data":[0,0,0,0,0,0,0,0,0,0,0,0,0,0,0,0,0,0,0,0,0,0,0,0,0,0,0,0,0,0,0,0,0,0,0,0,0,0,0,0,0,0,0,0,0,0,0,0,0,0,0,0,0,0,0,0,0,0,0.8964,0.8964,0,0.9,0.9,0.9001,0.9008,0.9008,0.9008,0.9007,0.9044,0.9046,0.9047,0,0,0,0,0,0,0,0,0,0,0,0,0,0.8901,0.8902,0.8964,0.8964,0.8965,0.9,0.9001,0.9001,0.9008,0.9008,0.9008,0.9007,0.9044,0.9045,0.9047,0,0,0,0,0,0,0,0,0,0,0,0,0,0.8932,0.8902,0.8964,0.8973,0.8974,0.9,0.9001,0.9001,0.9008,0.9008,0.9008,0.9007,0.9044,0.9045,0.9047,0.9067,0,0,0.9053,0.9054,0,0,0,0,0,0,0,0,0.893,0.8934,0.8971,0.8972,0.8973,0.8999,0.8992,0.9023,0.9009,0.8995,0.9007,0.9007,0.903,0.9033,0.904,0.9069,0.907,0.9053,0.9054,0.9055,0.9055,0,0,0,0,0,0,0,0.8928,0.8933,0.8978,0.8971,0.8973,0.8975,0.8979,0.8998,0.9014,0.8996,0.8997,0.9001,0.903,0.9039,0.9041,0.9071,0.9053,0.9055,0.9056,0.9057,0.9118,0.9118,0,0,0,0,0,0,0.8924,0.8931,0.8977,0.8979,0.895,0.8976,0.8981,0.8991,0.9014,0.9017,0.9002,0.9001,0.9036,0.9039,0.9043,0.9067,0.9055,0.9057,0.9058,0.9117,0.9118,0.9118,0,0,0,0,0,0,0.8923,0.8928,0.8975,0.8955,0.8961,0.8978,0.899,0.8992,0.9001,0.9018,0.9021,0.9007,0.9035,0.904,0.9061,0.9069,0.9058,0.9059,0.9116,0.9117,0.9118,0.9117,0,0,0,0,0,0,0.8921,0.8928,0.8935,0.8955,0.8962,0.8993,0.899,0.8993,0.9004,0.9004,0.9024,0.9027,0.9035,0.9058,0.9063,0.9071,0.9061,0.9116,0.9117,0.9118,0.9116,0.9117,0.9118,0,0,0,0,0,0.8919,0.8933,0.8935,0.8941,0.8972,0.8993,0.8998,0.9007,0.9004,0.9012,0.9024,0.9026,0.9067,0.906,0.9066,0.9074,0.9115,0.9117,0.9118,0.9116,0.9117,0.9118,0,0,0,0,0,0,0.8913,0.8936,0.8939,0.896,0.8975,0.8995,0.9005,0.9008,0.9024,0.9024,0.9035,0.904,0.906,0.9069,0.9061,0.9095,0.9091,0.9093,0.9088,0.9089,0.9091,0.9088,0.9062,0,0,0,0,0,0.8915,0.893,0.8949,0.8966,0.8974,0.8988,0.8998,0.9004,0.9019,0.9026,0.9039,0.9053,0.907,0.908,0.9096,0.9118,0.9122,0.9127,0.9128,0.9129,0.913,0.9143,0.9145,0.9122,0.9122,0.9122,0,0,0.8917,0.8932,0.8941,0.8966,0.8978,0.8994,0.8993,0.901,0.9021,0.9028,0.9049,0.9059,0.9076,0.9098,0.9108,0.9106,0.9138,0.913,0.9131,0.9132,0.9144,0.9146,0.9148,0.9123,0.9123,0.9122,0,0,0.8931,0.8943,0.8959,0.8971,0.899,0.8999,0.9003,0.9023,0.903,0.9051,0.9056,0.907,0.9098,0.911,0.912,0.9139,0.9142,0.9144,0.915,0.9162,0.9164,0.9165,0.9172,0.9174,0.9146,0.9146,0.9146,0,0.8932,0.8956,0.8967,0.8983,0.8994,0.9001,0.9017,0.9029,0.9051,0.9059,0.9057,0.9092,0.9105,0.9129,0.9134,0.9142,0.9146,0.9142,0.9162,0.9164,0.9166,0.9172,0.9175,0.9146,0.9146,0.9146,0.9146,0,0.8956,0.8973,0.8983,0.9005,0.9018,0.9034,0.9047,0.9058,0.9064,0.9074,0.9095,0.911,0.9129,0.9136,0.9141,0.9161,0.916,0.916,0.9156,0.9168,0.9174,0.9177,0.9146,0.9146,0.9146,0.9146,0,0,0.8966,0.8995,0.8998,0.9008,0.903,0.9043,0.906,0.9079,0.9088,0.9104,0.9118,0.9142,0.9143,0.9154,0.9161,0.9171,0.9185,0.917,0.9171,0.9172,0.9208,0.9208,0.921,0.9188,0.9188,0.9189,0.9207,0,0.8981,0.9012,0.9022,0.9047,0.9063,0.9071,0.9085,0.91,0.911,0.9125,0.9136,0.9152,0.9152,0.9159,0.917,0.9181,0.9193,0.918,0.9201,0.9202,0.9196,0.9213,0.9213,0.9229,0.9209,0.921,0.921,0,0.9003,0.902,0.9046,0.9066,0.9073,0.9086,0.9105,0.9119,0.9136,0.9143,0.9155,0.9162,0.918,0.9176,0.9201,0.9192,0.9201,0.9209,0.921,0.9211,0.9206,0.9215,0.9234,0.9236,0.9214,0.9214,0.9213,0,0.9008,0.9036,0.9056,0.9065,0.9088,0.9097,0.9108,0.9124,0.9135,0.9152,0.9159,0.9177,0.9187,0.9201,0.9213,0.9209,0.9237,0.9233,0.9242,0.9242,0.9247,0.9247,0.9267,0.9254,0.9254,0.9254,0.9254,0,0.9023,0.9039,0.9058,0.907,0.9088,0.9101,0.9118,0.9129,0.9144,0.9159,0.9167,0.918,0.9194,0.9209,0.9218,0.9238,0.9242,0.9248,0.925,0.9247,0.9246,0.9253,0.9252,0.9255,0.9255,0.9254,0.9254,0,0.9031,0.9044,0.9066,0.9087,0.9093,0.9105,0.9123,0.9135,0.9146,0.9164,0.9169,0.9186,0.9204,0.9217,0.9241,0.9247,0.9267,0.927,0.9262,0.9263,0.9271,0.927,0.9296,0.93,0.9284,0.9284,0.9285,0,0.904,0.9052,0.9075,0.9085,0.9096,0.9112,0.9124,0.9136,0.9148,0.9169,0.9178,0.9197,0.9213,0.9242,0.9256,0.9275,0.9277,0.9285,0.928,0.9276,0.9277,0.9276,0.9277,0.9286,0.9286,0.9286,0.9286,0,0.9054,0.906,0.9077,0.9096,0.9109,0.9124,0.914,0.9148,0.9164,0.9176,0.9195,0.9208,0.9232,0.9251,0.927,0.9281,0.9286,0.9288,0.9291,0.9287,0.9282,0.9285,0.9263,0.9287,0.9287,0.9287,0.9287,0.9286,0.9062,0.9074,0.9092,0.911,0.9123,0.9138,0.915,0.9162,0.9179,0.92,0.9206,0.9226,0.9243,0.927,0.9281,0.9297,0.9297,0.9301,0.9302,0.9303,0.9302,0.928,0.9301,0.9301,0.9301,0.9301,0.9301,0,0.9077,0.9089,0.9106,0.9127,0.9142,0.9146,0.9163,0.9175,0.9192,0.9208,0.9224,0.9246,0.9264,0.928,0.9299,0.9309,0.9311,0.9313,0.9312,0.9315,0.9302,0.9297,0.9311,0.9311,0.9311,0.9311,0.9311,0.9311,0.9086,0.9106,0.9115,0.9141,0.9153,0.9173,0.9183,0.9196,0.9209,0.9233,0.9249,0.9259,0.9275,0.9295,0.9312,0.9317,0.9323,0.9324,0.9329,0.9317,0.9316,0.9314,0.931,0.9326,0.9326,0.934,0.934,0.9341]},{"header":{"parameterUnit":"m.s-1","parameterCategory":1,"la1":30.2991,"la2":30.254,"lo1":-89.0895,"lo2":-89.0444,"dy":0.0017,"dx":0.0017,"nx":28,"ny":28,"refTime":"2024-07-01T21:00:00:Z","depth":0,"parameterNumber":3,"parameterNumberName":"V-component_of_WINDS"},"data":[0,0,0,0,0,0,0,0,0,0,0,0,0,0,0,0,0,0,0,0,0,0,0,0,0,0,0,0,0,0,0,0,0,0,0,0,0,0,0,0,0,0,0,0,0,0,0,0,0,0,0,0,0,0,0,0,0,0,2.5629,2.563,0,2.5713,2.5714,2.5715,2.5733,2.5732,2.5732,2.5731,2.5816,2.5819,2.5822,0,0,0,0,0,0,0,0,0,0,0,0,0,2.5482,2.5485,2.5629,2.563,2.5631,2.5713,2.5714,2.5716,2.5733,2.5732,2.5732,2.5731,2.5815,2.5819,2.5822,0,0,0,0,0,0,0,0,0,0,0,0,0,2.5554,2.5486,2.5629,2.565,2.5653,2.5713,2.5714,2.5716,2.5733,2.5732,2.5731,2.5731,2.5814,2.5818,2.5823,2.5868,0,0,2.5836,2.5838,0,0,0,0,0,0,0,0,2.555,2.556,2.5646,2.5649,2.5652,2.5712,2.5694,2.5767,2.5734,2.5703,2.5731,2.573,2.5782,2.5789,2.5807,2.5872,2.5875,2.5836,2.5839,2.5841,2.5842,0,0,0,0,0,0,0,2.5545,2.5556,2.5662,2.5647,2.5651,2.5655,2.5664,2.5708,2.5747,2.5705,2.5707,2.5717,2.5784,2.5803,2.5809,2.5877,2.5836,2.584,2.5842,2.5844,2.5984,2.5985,0,0,0,0,0,0,2.5537,2.5552,2.566,2.5665,2.5598,2.5658,2.5668,2.5693,2.5746,2.5753,2.5717,2.5717,2.5796,2.5804,2.5812,2.5869,2.584,2.5844,2.5847,2.5983,2.5984,2.5985,0,0,0,0,0,0,2.5533,2.5546,2.5656,2.5609,2.5623,2.5662,2.569,2.5696,2.5715,2.5755,2.5762,2.573,2.5796,2.5806,2.5854,2.5873,2.5846,2.585,2.5981,2.5983,2.5985,2.5983,0,0,0,0,0,0,2.5529,2.5545,2.5563,2.5609,2.5626,2.5697,2.5691,2.5698,2.5722,2.5723,2.5769,2.5776,2.5796,2.5848,2.5858,2.5878,2.5854,2.598,2.5982,2.5984,2.5982,2.5985,2.5987,0,0,0,0,0,2.5524,2.5558,2.5563,2.5576,2.5649,2.5698,2.5708,2.573,2.5724,2.5742,2.5768,2.5774,2.5869,2.5852,2.5865,2.5886,2.5979,2.5981,2.5984,2.5981,2.5984,2.5987,0,0,0,0,0,0,2.5512,2.5565,2.5571,2.5622,2.5655,2.5701,2.5725,2.5733,2.5769,2.5768,2.5794,2.5805,2.5851,2.5873,2.5854,2.5933,2.5923,2.5928,2.5917,2.592,2.5923,2.5917,2.5857,0,0,0,0,0,2.5516,2.5552,2.5596,2.5636,2.5653,2.5686,2.5708,2.5723,2.5759,2.5773,2.5802,2.5837,2.5874,2.5898,2.5935,2.5985,2.5996,2.6006,2.6008,2.601,2.6015,2.6044,2.6049,2.5994,2.5994,2.5994,0,0,2.5523,2.5556,2.5577,2.5635,2.5662,2.5699,2.5698,2.5736,2.5764,2.5779,2.5826,2.5849,2.5889,2.5938,2.5962,2.5958,2.6032,2.6013,2.6015,2.6018,2.6047,2.6052,2.6057,2.5995,2.5995,2.5995,0,0,2.5555,2.5584,2.5621,2.5649,2.5692,2.5714,2.5723,2.5767,2.5783,2.5832,2.5844,2.5876,2.594,2.5969,2.5991,2.6035,2.6043,2.6046,2.606,2.6088,2.6093,2.6097,2.6114,2.6119,2.605,2.605,2.605,0,2.5559,2.5615,2.5639,2.5678,2.5703,2.5718,2.5757,2.5783,2.5835,2.5852,2.5847,2.5928,2.5956,2.6013,2.6023,2.6041,2.6052,2.6041,2.609,2.6095,2.6099,2.6115,2.6121,2.605,2.605,2.605,2.605,0,2.5618,2.5657,2.5682,2.5733,2.5761,2.5799,2.5828,2.5853,2.5866,2.5888,2.5937,2.5971,2.6016,2.603,2.6042,2.6089,2.6085,2.6085,2.6076,2.6104,2.612,2.6126,2.6051,2.6051,2.6051,2.6051,0,0,2.5646,2.571,2.5719,2.5742,2.5791,2.5821,2.586,2.5904,2.5925,2.5961,2.5994,2.6048,2.6049,2.6074,2.609,2.6114,2.6148,2.6111,2.6112,2.6118,2.6203,2.6204,2.621,2.6153,2.6154,2.6155,2.62,0,2.5685,2.5756,2.5778,2.5837,2.5874,2.5889,2.5923,2.5956,2.5978,2.6012,2.6036,2.6075,2.6071,2.6087,2.6112,2.6138,2.6166,2.6135,2.6185,2.6186,2.6176,2.6218,2.6219,2.626,2.6206,2.6207,2.6208,0,2.574,2.5777,2.584,2.5885,2.5901,2.5931,2.5974,2.6006,2.6044,2.6058,2.6087,2.6101,2.6142,2.613,2.6188,2.6167,2.6189,2.6205,2.6207,2.6213,2.62,2.6227,2.6274,2.628,2.6218,2.6217,2.6216,0,2.5755,2.5821,2.5867,2.5887,2.594,2.5961,2.5984,2.6021,2.6046,2.6083,2.61,2.6141,2.6163,2.6195,2.6219,2.6208,2.6275,2.6265,2.6288,2.6288,2.6303,2.6302,2.6355,2.6314,2.6314,2.6314,2.6314,0,2.5797,2.5835,2.5875,2.5904,2.5947,2.5973,2.6015,2.6038,2.6071,2.6105,2.612,2.6151,2.6181,2.6216,2.6235,2.628,2.629,2.6303,2.6308,2.6302,2.6301,2.6318,2.6316,2.6316,2.6315,2.6315,2.6315,0,2.5822,2.585,2.5902,2.5948,2.596,2.599,2.603,2.6058,2.608,2.6123,2.6134,2.6169,2.6211,2.6239,2.6292,2.6305,2.6355,2.6358,2.6342,2.6345,2.6368,2.6366,2.6434,2.6445,2.6396,2.6396,2.6397,0,2.5847,2.5877,2.5927,2.5951,2.5974,2.6012,2.6038,2.6064,2.6091,2.6137,2.616,2.6203,2.6239,2.6306,2.6336,2.6377,2.6382,2.6403,2.6389,2.6383,2.6384,2.6383,2.6387,2.6406,2.6407,2.6407,2.6407,0,2.589,2.5903,2.594,2.5983,2.6014,2.6048,2.6083,2.6101,2.6133,2.6162,2.6206,2.6234,2.6289,2.6332,2.6376,2.64,2.6409,2.6411,2.6419,2.6415,2.6405,2.6412,2.635,2.641,2.641,2.641,2.6409,2.6409,2.5917,2.5945,2.5984,2.6026,2.6054,2.6087,2.6116,2.6142,2.6179,2.6227,2.624,2.6286,2.6323,2.6384,2.6408,2.6444,2.6442,2.6453,2.6456,2.6458,2.6459,2.6398,2.6452,2.6452,2.6452,2.6452,2.6452,0,2.5962,2.5988,2.6026,2.6074,2.6107,2.6113,2.6152,2.6179,2.6219,2.6254,2.6289,2.634,2.6382,2.6415,2.6458,2.6481,2.6487,2.6492,2.6491,2.6497,2.6458,2.6448,2.6487,2.6487,2.6487,2.6487,2.6487,2.6487,2.5989,2.6036,2.6054,2.6116,2.6142,2.6188,2.6209,2.6239,2.6267,2.6323,2.6358,2.638,2.6415,2.6461,2.65,2.6509,2.6524,2.6529,2.6539,2.6503,2.6499,2.6495,2.6486,2.6532,2.6532,2.6574,2.6574,2.6575]}]]